Location: *
(49.7115°N, 15.0136°E)
Time: 17:03:54
(UTC+00:00)

STARLINK-1062 - Pass Details

Date: 27 February 2020
Orbit: 548 x 551 km, 53.0° (Epoch: 30 March)

Event Time Altitude Azimuth Distance (km) Brightness Sun altitude
Rises 19:14:46 0° 258° (WSW) 2,713 8.1 -25.8°
Reaches altitude 10° 19:17:01 10° 261° (W) 1,822 7.0 -26.1°
Enters shadow 19:20:12 49° 283° (WNW) 714 4.5 -26.6°
